[[[{"header":{"parameterUnit":"kt","parameterCategory":2,"dx":1,"dy":1,"la1":30.253999710083008,"la2":30.299108505249023,"lo1":-89.0895004272461,"lo2":-89.04439544677734,"nx":28,"ny":28,"refTime":"2022-09-22T21:00:00:Z","depth":"0","parameterNumber":2,"parameterNumberName":"U-component_of_CURRENTS"},"data":[-0.5405,-0.5061,-0.4962,-0.4241,-0.4131,-0.3553,-0.3375,-0.3263,-0.3315,-0.3254,-0.3409,-0.3615,-0.36,-0.3578,-0.3325,-0.3238,-0.3145,-0.3088,-0.3174,-0.3355,-0.3407,-0.3456,-0.3357,-0.2968,-0.2967,-0.265,-0.2647,-0.2645,-0.5702,-0.5628,-0.5637,-0.5366,-0.5048,-0.5258,-0.5098,-0.4806,-0.4428,-0.4717,-0.4583,-0.4443,-0.4178,-0.4161,-0.3918,-0.3734,-0.3671,-0.3655,-0.3534,-0.3506,-0.3864,-0.3768,-0.3459,-0.346,-0.346,-0.346,-0.346,-0.346,-0.6163,-0.6151,-0.6112,-0.6039,-0.6022,-0.5837,-0.566,-0.5696,-0.5519,-0.5306,-0.5532,-0.5324,-0.5163,-0.4881,-0.4751,-0.4458,-0.4588,-0.4199,-0.4243,-0.4254,-0.4099,-0.4566,-0.4398,-0.4401,-0.4404,-0.4406,-0.4408,0,-0.6245,-0.6305,-0.6432,-0.6409,-0.6406,-0.6452,-0.6415,-0.6395,-0.6353,-0.6318,-0.6114,-0.6001,-0.5883,-0.5484,-0.531,-0.5094,-0.4868,-0.492,-0.4799,-0.4323,-0.4301,-0.4159,-0.4645,-0.4576,-0.4581,-0.4584,-0.4586,-0.4587,-0.6153,-0.6313,-0.6536,-0.6568,-0.6641,-0.6752,-0.6699,-0.6773,-0.6671,-0.6674,-0.6536,-0.6484,-0.6235,-0.5955,-0.5653,-0.5375,-0.5242,-0.5021,-0.4869,-0.4758,-0.471,-0.4693,-0.462,-0.4631,-0.4625,-0.4621,-0.4617,0,-0.6026,-0.621,-0.645,-0.6639,-0.6679,-0.6766,-0.6797,-0.675,-0.6807,-0.6679,-0.6657,-0.6539,-0.6345,-0.6139,-0.586,-0.5642,-0.5286,-0.5318,-0.5152,-0.5053,-0.4745,-0.4755,-0.4666,-0.4573,-0.517,-0.5168,-0.5167,0,-0.5903,-0.6086,-0.6285,-0.6415,-0.6591,-0.6628,-0.6719,-0.671,-0.6659,-0.6564,-0.6495,-0.6385,-0.6152,-0.5992,-0.5769,-0.5512,-0.5552,-0.5263,-0.5184,-0.4989,-0.4966,-0.4759,-0.4748,-0.5276,-0.5276,-0.5276,-0.5275,0,-0.5644,-0.5938,-0.6202,-0.6269,-0.6419,-0.6481,-0.6505,-0.6449,-0.6437,-0.6378,-0.634,-0.6206,-0.6107,-0.5934,-0.5659,-0.5606,-0.5464,-0.5336,-0.5181,-0.5175,-0.4913,-0.4882,-0.4826,-0.5275,-0.5275,-0.5275,-0.5275,0,-0.5494,-0.5668,-0.5988,-0.6145,-0.6195,-0.6275,-0.631,-0.6351,-0.6252,-0.6199,-0.6102,-0.5945,-0.5859,-0.5706,-0.5532,-0.5524,-0.54,-0.5271,-0.5266,-0.5126,-0.4971,-0.4821,-0.4878,-0.4726,-0.517,-0.5169,-0.5168,0,-0.5235,-0.5564,-0.5587,-0.5825,-0.5979,-0.5905,-0.5965,-0.595,-0.5885,-0.5868,-0.5703,-0.5663,-0.552,-0.5479,-0.5418,-0.5244,-0.5243,-0.5225,-0.5036,-0.5033,-0.4985,-0.5091,-0.4866,-0.4876,-0.5158,-0.5159,-0.516,0,-0.5011,-0.5232,-0.5259,-0.5373,-0.5448,-0.55,-0.5568,-0.5616,-0.5641,-0.558,-0.5611,-0.551,-0.5397,-0.5344,-0.5216,-0.5171,-0.5221,-0.5058,-0.505,-0.5109,-0.5159,-0.5085,-0.5085,-0.511,-0.5111,-0.5112,-0.5152,0,-0.4912,-0.5024,-0.5092,-0.5232,-0.5261,-0.5373,-0.5354,-0.5364,-0.5321,-0.5294,-0.5266,-0.5145,-0.5085,-0.5038,-0.4966,-0.4985,-0.4947,-0.4836,-0.4776,-0.486,-0.4862,-0.487,-0.4722,-0.4718,-0.4715,-0.4712,0,0,-0.468,-0.4835,-0.479,-0.4923,-0.4983,-0.4903,-0.5051,-0.5034,-0.5049,-0.5048,-0.499,-0.4894,-0.4811,-0.4804,-0.4832,-0.4765,-0.4735,-0.478,-0.4806,-0.4817,-0.4827,-0.4835,-0.4846,-0.4706,-0.4705,-0.4703,-0.4702,0,-0.4659,-0.4636,-0.4753,-0.4793,-0.4859,-0.486,-0.4883,-0.4916,-0.491,-0.4944,-0.4849,-0.4799,-0.4741,-0.4693,-0.4653,-0.472,-0.4639,-0.4682,-0.4833,-0.4778,-0.4794,-0.4807,-0.482,-0.4832,-0.4694,-0.4695,-0.4695,0,-0.4547,-0.4587,-0.4614,-0.468,-0.4701,-0.4796,-0.4711,-0.4772,-0.4835,-0.4694,-0.4746,-0.4658,-0.4562,-0.4568,-0.4556,-0.4518,-0.4555,-0.4522,-0.4537,-0.4572,-0.451,-0.4529,-0.4545,-0.4344,-0.4344,-0.4344,0,0,-0.4537,-0.4593,-0.4627,-0.4676,-0.4701,-0.4703,-0.4722,-0.4727,-0.4719,-0.4711,-0.4664,-0.4599,-0.4553,-0.4532,-0.4483,-0.4483,-0.4439,-0.449,-0.4506,-0.4521,-0.4563,-0.4507,-0.4524,-0.4343,-0.4343,-0.4343,0,0,-0.4526,-0.4583,-0.457,-0.4633,-0.4665,-0.4683,-0.4716,-0.4698,-0.468,-0.4672,-0.4584,-0.4567,-0.4558,-0.4488,-0.449,-0.4471,-0.4389,-0.4387,-0.4557,-0.4576,-0.4592,-0.4663,-0.4409,0,0,0,0,0,-0.4529,-0.4581,-0.4569,-0.4581,-0.4629,-0.4688,-0.4692,-0.4685,-0.465,-0.4679,-0.4623,-0.4564,-0.4473,-0.4474,-0.4459,-0.4501,-0.4335,-0.4336,-0.4338,-0.4553,-0.4574,-0.4591,0,0,0,0,0,0,-0.4534,-0.4549,-0.4568,-0.459,-0.4601,-0.4685,-0.4632,-0.463,-0.4648,-0.4644,-0.4577,-0.4561,-0.4508,-0.4476,-0.4463,-0.4507,-0.4413,-0.4335,-0.4337,-0.4338,-0.456,-0.4577,-0.4592,0,0,0,0,0,-0.4538,-0.455,-0.4632,-0.4588,-0.4598,-0.4604,-0.463,-0.4628,-0.4635,-0.4573,-0.456,-0.4632,-0.451,-0.4494,-0.4468,-0.4515,-0.4421,-0.4417,-0.4336,-0.4337,-0.4338,-0.4568,0,0,0,0,0,0,-0.4541,-0.4534,-0.4633,-0.4636,-0.4576,-0.4599,-0.4603,-0.4627,-0.4561,-0.4552,-0.4622,-0.4619,-0.4512,-0.4499,-0.4487,-0.4524,-0.4428,-0.4423,-0.442,-0.4337,-0.4338,-0.4338,0,0,0,0,0,0,-0.4528,-0.4536,-0.4634,-0.4619,-0.4619,-0.4594,-0.4598,-0.4557,-0.4556,-0.4609,-0.4608,-0.4621,-0.4501,-0.4503,-0.4493,-0.4431,-0.4433,-0.4429,-0.4426,-0.4424,-0.4337,-0.4338,0,0,0,0,0,0,-0.4531,-0.4537,-0.4617,-0.4617,-0.4617,-0.4636,-0.4552,-0.458,-0.4615,-0.4609,-0.4611,-0.461,-0.4503,-0.4495,-0.4498,-0.444,-0.4433,-0.4433,-0.443,-0.4428,-0.4426,0,0,0,0,0,0,0,-0.4533,-0.4494,-0.4628,-0.4616,-0.4616,-0.4657,-0.4657,-0.4657,-0.4615,-0.4613,-0.4612,-0.461,-0.4458,-0.4453,-0.4448,-0.4447,0,0,-0.4433,-0.4431,0,0,0,0,0,0,0,0,-0.4491,-0.4494,-0.4629,-0.463,-0.463,-0.4657,-0.4657,-0.4657,-0.4614,-0.4613,-0.4612,-0.4611,-0.4456,-0.4453,-0.4449,0,0,0,0,0,0,0,0,0,0,0,0,0,0,0,-0.4629,-0.4629,0,-0.4657,-0.4657,-0.4657,-0.4614,-0.4613,-0.4612,-0.4611,-0.4455,-0.4452,-0.4449,0,0,0,0,0,0,0,0,0,0,0,0,0,0,0,0,0,0,0,0,0,0,0,0,0,0,0,0,0,0,0,0,0,0,0,0,0,0,0,0,0,0,0,0,0,0,0,0,0,0,0,0,0,0,0,0,0,0,0,0,0,0,0,0,0,0,0,0,0]}],[{"header":{"parameterUnit":"kt","parameterCategory":2,"dx":1,"dy":1,"la1":30.253999710083008,"la2":30.299108505249023,"lo1":-89.0895004272461,"lo2":-89.04439544677734,"nx":28,"ny":28,"refTime":"2022-09-22T21:00:00:Z","depth":"0","parameterNumber":3,"parameterNumberName":"V-component_of_CURRENTS"},"data":[-0.1151,-0.1076,-0.0989,-0.0575,-0.0382,0.0081,0.0364,0.0768,0.1015,0.1449,0.1582,0.1684,0.1878,0.2468,0.2716,0.2718,0.2803,0.2847,0.2906,0.2607,0.258,0.2554,0.2569,0.2812,0.2813,0.3159,0.3162,0.3164,-0.1154,-0.1108,-0.1058,-0.0822,-0.0569,-0.0484,-0.0124,0.02,0.0693,0.0896,0.1251,0.1516,0.1945,0.214,0.2427,0.255,0.2559,0.2579,0.2577,0.2616,0.2325,0.2336,0.2534,0.2534,0.2533,0.2533,0.2533,0.2533,-0.1127,-0.1138,-0.1037,-0.0913,-0.0774,-0.0486,-0.0282,0.0008,0.0316,0.0762,0.0797,0.1191,0.1505,0.199,0.2127,0.2286,0.23,0.2302,0.2345,0.2379,0.2468,0.2186,0.2351,0.235,0.235,0.235,0.2349,0,-0.0977,-0.0954,-0.0918,-0.0818,-0.071,-0.0539,-0.0343,-0.0257,0.0097,0.028,0.063,0.0883,0.1244,0.1609,0.191,0.2025,0.2061,0.2039,0.2056,0.2117,0.2185,0.2266,0.19,0.2012,0.2009,0.2008,0.2006,0.2005,-0.0747,-0.0789,-0.0664,-0.0615,-0.0543,-0.0452,-0.0324,-0.0082,0.0076,0.038,0.0478,0.0742,0.1049,0.1403,0.162,0.1861,0.1893,0.1975,0.1938,0.1976,0.2038,0.2078,0.2131,0.198,0.1983,0.1986,0.1988,0,-0.0602,-0.0504,-0.0495,-0.0316,-0.0269,-0.0252,-0.0019,0.0091,0.0256,0.0417,0.0466,0.0762,0.1004,0.1204,0.1398,0.1503,0.1739,0.1727,0.1745,0.1778,0.194,0.1978,0.2174,0.2254,0.1888,0.1892,0.1895,0,-0.0317,-0.0327,-0.0156,-0.0171,-0.0137,0.0068,0.0131,0.0269,0.0464,0.0587,0.0759,0.0877,0.1055,0.1203,0.1313,0.1508,0.1458,0.1603,0.1634,0.1639,0.1649,0.1696,0.1735,0.1498,0.1497,0.1497,0.1496,0,-0.0131,-0.0026,-0.004,0.0004,0.0194,0.0238,0.0349,0.053,0.0618,0.0779,0.0843,0.0996,0.1067,0.1158,0.1327,0.1302,0.1463,0.1441,0.1591,0.1599,0.1643,0.1656,0.1727,0.1495,0.1495,0.1495,0.1495,0,0.0106,0.0142,0.0126,0.0294,0.0316,0.0358,0.0507,0.0593,0.0764,0.085,0.0958,0.1056,0.1162,0.1184,0.1319,0.1292,0.1348,0.1402,0.1406,0.152,0.1548,0.1627,0.1685,0.1714,0.1468,0.1467,0.1467,0,0.0275,0.0256,0.0364,0.0385,0.0396,0.0559,0.0633,0.0744,0.0847,0.0932,0.1046,0.1121,0.1181,0.1219,0.1265,0.135,0.1379,0.1347,0.1425,0.1428,0.1514,0.1558,0.1582,0.1669,0.1459,0.146,0.146,0,0.0383,0.0491,0.0479,0.052,0.0634,0.0654,0.0733,0.0824,0.0874,0.0963,0.1027,0.1139,0.1192,0.1239,0.1307,0.1337,0.137,0.1352,0.1354,0.1375,0.1423,0.1534,0.155,0.1368,0.1369,0.1369,0.1454,0,0.0623,0.0618,0.0595,0.0636,0.0684,0.0684,0.0794,0.0842,0.0911,0.0982,0.1067,0.1152,0.1233,0.1267,0.1313,0.1358,0.1369,0.1373,0.1371,0.1378,0.1418,0.1423,0.1373,0.1373,0.1374,0.1374,0,0,0.0737,0.0699,0.0745,0.0745,0.0778,0.0865,0.0865,0.0921,0.0996,0.1036,0.1054,0.119,0.1241,0.1321,0.1341,0.1362,0.1376,0.1352,0.1379,0.138,0.138,0.1417,0.1422,0.1375,0.1375,0.1375,0.1375,0,0.0805,0.0805,0.0755,0.0797,0.084,0.0894,0.0893,0.0958,0.1,0.1051,0.1118,0.1176,0.1241,0.1304,0.1343,0.1363,0.138,0.1375,0.136,0.1382,0.1382,0.1382,0.1418,0.1422,0.1376,0.1376,0.1376,0,0.0913,0.0923,0.0893,0.0907,0.0936,0.0956,0.1006,0.1012,0.1045,0.1108,0.1152,0.1205,0.1271,0.1316,0.1333,0.1335,0.1382,0.1369,0.1368,0.136,0.1383,0.1383,0.1383,0.1378,0.1377,0.1377,0,0,0.097,0.093,0.0977,0.0923,0.0938,0.0999,0.101,0.1046,0.109,0.1109,0.1157,0.1211,0.1264,0.1284,0.1325,0.1351,0.1368,0.1367,0.1367,0.1366,0.1358,0.1381,0.1381,0.1376,0.1376,0.1376,0,0,0.0997,0.1012,0.1035,0.0973,0.1009,0.1065,0.1051,0.1094,0.1135,0.1139,0.12,0.1212,0.1249,0.1273,0.1258,0.1327,0.1331,0.1335,0.1305,0.1306,0.1306,0.1287,0.1287,0,0,0,0,0,0.1073,0.1009,0.1029,0.1025,0.1034,0.1055,0.1063,0.1105,0.1129,0.1124,0.118,0.1195,0.1289,0.1276,0.1283,0.1294,0.1365,0.1367,0.1369,0.1338,0.1338,0.1339,0,0,0,0,0,0,0.1072,0.1064,0.1032,0.1076,0.1079,0.1056,0.1103,0.1115,0.113,0.1135,0.1188,0.1197,0.1236,0.1273,0.128,0.129,0.1285,0.1366,0.1368,0.1369,0.1338,0.1338,0.1339,0,0,0,0,0,0.1071,0.1065,0.1052,0.1079,0.1082,0.1131,0.1104,0.1114,0.113,0.1182,0.1192,0.1158,0.1235,0.1243,0.1277,0.1286,0.128,0.1283,0.1367,0.1368,0.137,0.1338,0,0,0,0,0,0,0.107,0.1095,0.1056,0.1061,0.1081,0.1134,0.1138,0.1113,0.1177,0.1187,0.1154,0.1158,0.1234,0.1241,0.1247,0.1284,0.1277,0.1279,0.1281,0.1368,0.1369,0.137,0,0,0,0,0,0,0.1099,0.1098,0.1059,0.1058,0.1064,0.1137,0.1139,0.1161,0.1177,0.1147,0.1151,0.1155,0.1218,0.1239,0.1244,0.1278,0.1274,0.1276,0.1278,0.1279,0.1369,0.137,0,0,0,0,0,0,0.11,0.11,0.1058,0.1062,0.1067,0.1131,0.1159,0.1162,0.1182,0.1143,0.1183,0.1184,0.1215,0.1221,0.1242,0.1273,0.1276,0.1274,0.1276,0.1277,0.1278,0,0,0,0,0,0,0,0.1102,0.1077,0.102,0.1065,0.107,0.1107,0.1109,0.1111,0.1182,0.1183,0.1183,0.1184,0.1261,0.1264,0.1266,0.1269,0,0,0.1274,0.1275,0,0,0,0,0,0,0,0,0.108,0.1077,0.102,0.1021,0.1022,0.1107,0.1109,0.111,0.1182,0.1183,0.1183,0.1184,0.1262,0.1264,0.1266,0,0,0,0,0,0,0,0,0,0,0,0,0,0,0,0.102,0.1021,0,0.1107,0.1109,0.111,0.1182,0.1183,0.1183,0.1183,0.1262,0.1264,0.1266,0,0,0,0,0,0,0,0,0,0,0,0,0,0,0,0,0,0,0,0,0,0,0,0,0,0,0,0,0,0,0,0,0,0,0,0,0,0,0,0,0,0,0,0,0,0,0,0,0,0,0,0,0,0,0,0,0,0,0,0,0,0,0,0,0,0,0,0,0]}]],[[{"header":{"parameterUnit":"kt","parameterCategory":2,"dx":1,"dy":1,"la1":30.253999710083008,"la2":30.299108505249023,"lo1":-89.0895004272461,"lo2":-89.04439544677734,"nx":28,"ny":28,"refTime":"2022-09-22T21:00:00:Z","depth":"2","parameterNumber":2,"parameterNumberName":"U-component_of_CURRENTS"},"data":[-0.3449,-0.3469,-0.3539,-0.3571,-0.3657,-0.3579,-0.3498,-0.3149,-0.2825,-0.206,-0.163,-0.1285,-0.1671,-0.1336,-0.142,-0.141,-0.1758,-0.1359,-0.2287,-0.2241,-0.2314,-0.2664,-0.2296,0,0,0,0,0,-0.3534,-0.3559,-0.3751,-0.3879,-0.3977,-0.413,-0.4169,-0.398,-0.367,-0.3293,-0.2897,-0.236,-0.1987,-0.2167,-0.2028,-0.2087,-0.2067,-0.2159,-0.2085,-0.2165,-0.2239,-0.1952,-0.1435,-0.1434,-0.1433,-0.1432,0,0,-0.3595,-0.3699,-0.3791,-0.4007,-0.4196,-0.4259,-0.4271,-0.4319,-0.4271,-0.3964,-0.4061,-0.358,-0.3575,-0.2932,-0.2919,-0.3007,-0.3168,-0.3086,-0.3115,-0.3155,-0.2913,-0.2777,-0.2649,-0.2655,-0.266,-0.2665,-0.2669,0,-0.3555,-0.3625,-0.3783,-0.4004,-0.419,-0.4401,-0.4598,-0.4645,-0.4808,-0.4812,-0.4701,-0.4531,-0.4377,-0.3893,-0.3802,-0.364,-0.3927,-0.3735,-0.4545,-0.324,-0.3112,-0.3048,-0.3061,-0.3086,-0.3095,-0.3102,-0.3107,-0.311,-0.342,-0.3532,-0.3839,-0.395,-0.4084,-0.4376,-0.4522,-0.4749,-0.4837,-0.4991,-0.5011,-0.5051,-0.4814,-0.4741,-0.4486,-0.4321,-0.4497,-0.3953,-0.3619,-0.4192,-0.4131,-0.4106,-0.4081,-0.3206,-0.3194,-0.3184,-0.3176,0,-0.334,-0.3412,-0.3679,-0.3953,-0.4046,-0.428,-0.4529,-0.4687,-0.4849,-0.4972,-0.503,-0.5073,-0.4998,-0.4928,-0.4884,-0.4704,-0.4606,-0.4516,-0.4019,-0.3913,-0.4126,-0.4094,-0.436,-0.4355,-0.435,-0.4346,-0.4343,0,-0.3241,-0.3412,-0.3591,-0.3697,-0.4005,-0.411,-0.4395,-0.4528,-0.4688,-0.4781,-0.4824,-0.4848,-0.4784,-0.4781,-0.4628,-0.4457,-0.465,-0.417,-0.4133,-0.3702,-0.3641,-0.4205,-0.4177,-0.442,-0.4418,-0.4415,-0.4413,0,-0.314,-0.3318,-0.3504,-0.3571,-0.378,-0.3938,-0.4059,-0.4207,-0.4311,-0.4508,-0.4587,-0.4642,-0.464,-0.4616,-0.4392,-0.4297,-0.4441,-0.429,-0.407,-0.4055,-0.3727,-0.367,-0.441,-0.441,-0.4409,-0.4409,-0.4408,0,-0.3044,-0.3137,-0.3304,-0.3573,-0.3619,-0.3704,-0.3971,-0.4039,-0.4157,-0.4207,-0.426,-0.4208,-0.4227,-0.4018,-0.4054,-0.3974,-0.3935,-0.3862,-0.3872,-0.3704,-0.3544,-0.3378,-0.338,-0.3915,-0.3911,-0.3906,-0.3902,0,-0.3027,-0.3111,-0.3115,-0.328,-0.3377,-0.3413,-0.3509,-0.3583,-0.3624,-0.376,-0.3681,-0.3763,-0.3545,-0.3596,-0.3588,-0.354,-0.3617,-0.3443,-0.3706,-0.3716,-0.3527,-0.3604,-0.3122,-0.3334,-0.3845,-0.3851,-0.3856,0,-0.2981,-0.3023,-0.303,-0.3147,-0.3144,-0.3186,-0.3229,-0.3335,-0.3469,-0.3382,-0.3584,-0.3434,-0.3433,-0.3445,-0.3364,-0.3393,-0.3515,-0.3357,-0.3362,-0.3513,-0.3792,-0.3554,-0.357,-0.349,-0.3497,-0.3502,-0.381,0,-0.3047,-0.307,-0.3044,-0.3049,-0.3063,-0.3086,-0.3088,-0.3109,-0.3125,-0.3157,-0.3217,-0.3122,-0.3211,-0.3114,-0.3075,-0.3185,-0.3222,-0.3157,-0.3222,-0.3262,-0.3381,-0.3416,-0.2999,-0.2999,-0.2999,-0.2999,0,0,-0.3086,-0.3073,-0.2994,-0.299,-0.3042,-0.2982,-0.304,-0.3013,-0.3016,-0.3093,-0.3023,-0.3068,-0.3001,-0.3086,-0.3056,-0.2993,-0.3093,-0.3106,-0.3198,-0.3219,-0.3239,-0.3357,-0.3391,-0.2999,-0.2999,-0.2999,-0.2999,0,-0.3105,-0.3048,-0.3009,-0.3008,-0.2983,-0.2987,-0.2982,-0.2974,-0.2997,-0.3007,-0.3007,-0.2987,-0.2988,-0.3005,-0.3015,-0.299,-0.309,-0.2968,-0.3099,-0.3191,-0.3212,-0.3232,-0.3351,-0.3382,-0.2999,-0.2999,-0.2999,0,-0.3154,-0.3118,-0.3088,-0.3035,-0.3018,-0.3026,-0.3022,-0.299,-0.303,-0.3018,-0.3051,-0.3013,-0.3021,-0.3016,-0.3014,-0.3039,-0.313,-0.303,-0.3029,-0.3133,-0.3234,-0.3256,-0.3275,-0.3043,-0.3043,-0.3043,0,0,-0.3175,-0.3119,-0.31,-0.3042,-0.3027,-0.3028,-0.3011,-0.3023,-0.3017,-0.3017,-0.3031,-0.3041,-0.3034,-0.305,-0.303,-0.3031,-0.3124,-0.3036,-0.3034,-0.3033,-0.3133,-0.3234,-0.3253,-0.3044,-0.3045,-0.3045,0,0,-0.3193,-0.3148,-0.3155,-0.3082,-0.3067,-0.3053,-0.302,-0.3039,-0.3033,-0.304,-0.3066,-0.3069,-0.305,-0.3062,-0.3074,-0.3068,-0.3074,-0.3071,-0.3081,-0.3078,-0.3076,-0.3204,-0.3112,0,0,0,0,0,-0.3212,-0.3151,-0.3157,-0.3144,-0.3084,-0.3047,-0.3042,-0.3047,-0.3071,-0.3052,-0.3066,-0.309,-0.3076,-0.3087,-0.3085,-0.3095,-0.3058,-0.3056,-0.3054,-0.3061,-0.3058,-0.3055,0,0,0,0,0,0,-0.3207,-0.319,-0.3159,-0.3138,-0.3125,-0.3049,-0.3086,-0.3086,-0.3073,-0.3077,-0.3086,-0.309,-0.3105,-0.309,-0.3087,-0.3097,-0.3113,-0.3057,-0.3055,-0.3053,-0.306,-0.3057,-0.3055,0,0,0,0,0,-0.3203,-0.3189,-0.3089,-0.314,-0.3129,-0.3121,-0.3088,-0.3089,-0.3082,-0.3091,-0.3095,-0.3087,-0.3104,-0.3104,-0.3088,-0.3098,-0.3114,-0.3113,-0.3056,-0.3054,-0.3053,-0.3059,0,0,0,0,0,0,-0.32,-0.3196,-0.3087,-0.3084,-0.3159,-0.3127,-0.312,-0.3091,-0.3098,-0.3099,-0.3094,-0.3097,-0.3102,-0.3103,-0.3103,-0.3098,-0.3115,-0.3115,-0.3114,-0.3055,-0.3053,-0.3052,0,0,0,0,0,0,-0.3204,-0.3194,-0.3086,-0.3109,-0.3109,-0.3131,-0.3126,-0.311,-0.3099,-0.3102,-0.3104,-0.3095,-0.3112,-0.3101,-0.3102,-0.3076,-0.3116,-0.3116,-0.3115,-0.3115,-0.3054,-0.3053,0,0,0,0,0,0,-0.32,-0.3191,-0.311,-0.311,-0.311,-0.3082,-0.312,-0.3066,-0.3093,-0.3102,-0.3098,-0.3101,-0.3111,-0.3111,-0.3101,-0.3075,-0.3076,-0.3116,-0.3116,-0.3115,-0.3115,0,0,0,0,0,0,0,-0.3197,-0.3247,-0.31,-0.3111,-0.3111,-0.3059,-0.3058,-0.3058,-0.3094,-0.3096,-0.3098,-0.31,-0.3121,-0.312,-0.3119,-0.3074,0,0,-0.3117,-0.3116,0,0,0,0,0,0,0,0,-0.3251,-0.3248,-0.31,-0.3099,-0.3099,-0.3059,-0.3059,-0.3058,-0.3094,-0.3096,-0.3097,-0.3099,-0.3121,-0.312,-0.312,0,0,0,0,0,0,0,0,0,0,0,0,0,0,0,-0.31,-0.3099,0,-0.3059,-0.3059,-0.3058,-0.3094,-0.3096,-0.3097,-0.3098,-0.3121,-0.312,-0.312,0,0,0,0,0,0,0,0,0,0,0,0,0,0,0,0,0,0,0,0,0,0,0,0,0,0,0,0,0,0,0,0,0,0,0,0,0,0,0,0,0,0,0,0,0,0,0,0,0,0,0,0,0,0,0,0,0,0,0,0,0,0,0,0,0,0,0,0,0]}],[{"header":{"parameterUnit":"kt","parameterCategory":2,"dx":1,"dy":1,"la1":30.253999710083008,"la2":30.299108505249023,"lo1":-89.0895004272461,"lo2":-89.04439544677734,"nx":28,"ny":28,"refTime":"2022-09-22T21:00:00:Z","depth":"2","parameterNumber":3,"parameterNumberName":"V-component_of_CURRENTS"},"data":[-0.203,-0.2186,-0.223,-0.2254,-0.2206,-0.2068,-0.1933,-0.1772,-0.1561,-0.1369,-0.1173,-0.1181,-0.0632,-0.0399,-0.0109,0.0196,0.0384,0.0231,0.0544,0.0332,0.0359,0.0624,0.0407,0,0,0,0,0,-0.1912,-0.1967,-0.2067,-0.2064,-0.2045,-0.1926,-0.1754,-0.1665,-0.154,-0.1323,-0.1166,-0.0874,-0.0641,-0.0083,0.0306,0.055,0.0499,0.0741,0.0582,0.0607,0.0633,0.0486,0.0366,0.0368,0.0371,0.0373,0,0,-0.1699,-0.1774,-0.1828,-0.1865,-0.1824,-0.1716,-0.1654,-0.1519,-0.1373,-0.1109,-0.0943,-0.0669,-0.0334,0.0184,0.0513,0.0893,0.0898,0.0981,0.0986,0.0998,0.0871,0.0761,0.085,0.0854,0.0857,0.086,0.0863,0,-0.1546,-0.1537,-0.1549,-0.1616,-0.159,-0.1503,-0.1387,-0.133,-0.1003,-0.0863,-0.0597,-0.0407,0.0064,0.0318,0.0789,0.0921,0.1195,0.1186,0.1559,0.0814,0.0696,0.0669,0.0662,0.0798,0.0802,0.0805,0.0807,0.0808,-0.1358,-0.1398,-0.1345,-0.1358,-0.1307,-0.1241,-0.119,-0.0915,-0.0815,-0.0442,-0.0384,0.0012,0.0205,0.0727,0.0966,0.1277,0.143,0.1261,0.1116,0.1331,0.1311,0.1281,0.1254,0.0848,0.0843,0.0839,0.0835,0,-0.1292,-0.1207,-0.1203,-0.1094,-0.1057,-0.1041,-0.0847,-0.0773,-0.0509,-0.0347,-0.0258,0.0124,0.043,0.0748,0.1068,0.1164,0.1375,0.1424,0.1054,0.1019,0.1264,0.1237,0.154,0.1541,0.1542,0.1543,0.1544,0,-0.1145,-0.1112,-0.1011,-0.1015,-0.0984,-0.0814,-0.0721,-0.0577,-0.0338,-0.0224,0.0068,0.0197,0.0528,0.0747,0.0882,0.1099,0.1167,0.1157,0.1168,0.0875,0.0843,0.1046,0.102,0.1251,0.1249,0.1247,0.1246,0,-0.109,-0.0948,-0.0939,-0.0904,-0.0766,-0.0705,-0.0621,-0.0417,-0.0329,-0.0053,0.0055,0.0339,0.0459,0.0652,0.0808,0.0755,0.1088,0.1022,0.1084,0.1079,0.0877,0.0846,0.1244,0.1243,0.1243,0.1242,0.1242,0,-0.0954,-0.0913,-0.0858,-0.0746,-0.0706,-0.0652,-0.0522,-0.0432,-0.0206,-0.0099,0.0107,0.0219,0.0425,0.0398,0.0673,0.058,0.0669,0.0731,0.0741,0.0722,0.064,0.0543,0.0654,0.0796,0.0792,0.0788,0.0785,0,-0.0992,-0.0904,-0.0793,-0.0722,-0.0686,-0.0581,-0.0503,-0.0393,-0.0288,-0.0147,-0.0002,0.0121,0.0134,0.0202,0.0328,0.0408,0.0536,0.039,0.0617,0.0624,0.0575,0.0733,0.0425,0.0604,0.0736,0.0742,0.0745,0,-0.1016,-0.0853,-0.0829,-0.0795,-0.0662,-0.0632,-0.0529,-0.043,-0.0347,-0.023,-0.0098,0.0008,0.0091,0.0139,0.0178,0.0287,0.0451,0.0275,0.028,0.036,0.0711,0.0668,0.0697,0.0464,0.047,0.0475,0.0707,0,-0.1012,-0.092,-0.0867,-0.0748,-0.0692,-0.0633,-0.0555,-0.0491,-0.0432,-0.0365,-0.0217,-0.0153,-0.0032,-0.0011,-0.0016,0.0152,0.0147,0.0128,0.0132,0.0221,0.0304,0.0334,-0.0033,-0.0034,-0.0034,-0.0035,0,0,-0.1086,-0.0977,-0.0884,-0.0804,-0.0761,-0.0694,-0.0636,-0.0585,-0.049,-0.043,-0.0424,-0.0251,-0.0212,-0.0082,-0.006,-0.0059,0.0004,-0.0018,0.0155,0.0175,0.0195,0.028,0.0309,-0.0036,-0.0036,-0.0036,-0.0036,0,-0.1085,-0.0988,-0.0906,-0.0851,-0.0745,-0.0716,-0.0682,-0.0592,-0.054,-0.0469,-0.043,-0.0336,-0.0261,-0.0193,-0.0157,-0.0081,-0.0022,-0.0063,0.0024,0.0144,0.0165,0.0185,0.0272,0.0299,-0.0038,-0.0038,-0.0038,0,-0.1122,-0.1038,-0.0988,-0.087,-0.0807,-0.0751,-0.0721,-0.0635,-0.0592,-0.0559,-0.0462,-0.0418,-0.0364,-0.028,-0.0232,-0.0232,-0.0036,-0.0125,-0.0121,-0.0086,0.0039,0.0062,0.0083,-0.0182,-0.0183,-0.0183,0,0,-0.1124,-0.1035,-0.0946,-0.0866,-0.0821,-0.0754,-0.0713,-0.0667,-0.0603,-0.0566,-0.0506,-0.0436,-0.0384,-0.0327,-0.0285,-0.0204,-0.0146,-0.0144,-0.0137,-0.0131,-0.0094,0.0031,0.0053,-0.0185,-0.0185,-0.0185,0,0,-0.1136,-0.1007,-0.0969,-0.0866,-0.0808,-0.0745,-0.0692,-0.0659,-0.059,-0.0558,-0.0513,-0.0493,-0.0403,-0.0371,-0.0405,-0.0254,-0.0281,-0.0274,-0.0266,-0.0258,-0.0251,-0.0219,-0.038,0,0,0,0,0,-0.1092,-0.1027,-0.0994,-0.0966,-0.083,-0.0767,-0.0754,-0.0682,-0.0645,-0.0613,-0.0555,-0.0522,-0.0376,-0.0406,-0.0391,-0.0321,-0.0212,-0.0207,-0.0203,-0.0177,-0.0168,-0.016,0,0,0,0,0,0,-0.1081,-0.1047,-0.0996,-0.0927,-0.0896,-0.0769,-0.0741,-0.0722,-0.0646,-0.0634,-0.0539,-0.0522,-0.0495,-0.0411,-0.0398,-0.0331,-0.0384,-0.021,-0.0206,-0.0202,-0.0174,-0.0166,-0.016,0,0,0,0,0,-0.1071,-0.1044,-0.0828,-0.0929,-0.0902,-0.0803,-0.0739,-0.0723,-0.0655,-0.0595,-0.0575,-0.0593,-0.0499,-0.0481,-0.0403,-0.0337,-0.0392,-0.0388,-0.0207,-0.0204,-0.0201,-0.017,0,0,0,0,0,0,-0.1065,-0.1052,-0.0823,-0.0814,-0.091,-0.0808,-0.0783,-0.0724,-0.0618,-0.0598,-0.0652,-0.0644,-0.0501,-0.0487,-0.0473,-0.034,-0.0399,-0.0395,-0.0392,-0.0205,-0.0203,-0.02,0,0,0,0,0,0,-0.1066,-0.1045,-0.0819,-0.0798,-0.0787,-0.0812,-0.079,-0.0749,-0.0617,-0.0681,-0.0672,-0.0649,-0.0503,-0.0491,-0.0481,-0.0421,-0.0405,-0.04,-0.0397,-0.0395,-0.0203,-0.0201,0,0,0,0,0,0,-0.1058,-0.1039,-0.08,-0.0792,-0.0782,-0.0687,-0.0775,-0.063,-0.0623,-0.0687,-0.0616,-0.0613,-0.0508,-0.0496,-0.0486,-0.0432,-0.0424,-0.0405,-0.0402,-0.0399,-0.0398,0,0,0,0,0,0,0,-0.105,-0.1172,-0.0865,-0.0786,-0.0778,-0.0735,-0.0733,-0.0732,-0.0622,-0.062,-0.0617,-0.0615,-0.0431,-0.0426,-0.0421,-0.0441,0,0,-0.0405,-0.0403,0,0,0,0,0,0,0,0,-0.1179,-0.1174,-0.0865,-0.0863,-0.0861,-0.0735,-0.0733,-0.0732,-0.0622,-0.062,-0.0618,-0.0616,-0.0429,-0.0425,-0.0421,0,0,0,0,0,0,0,0,0,0,0,0,0,0,0,-0.0865,-0.0863,0,-0.0735,-0.0734,-0.0732,-0.0622,-0.062,-0.0618,-0.0616,-0.0428,-0.0425,-0.0422,0,0,0,0,0,0,0,0,0,0,0,0,0,0,0,0,0,0,0,0,0,0,0,0,0,0,0,0,0,0,0,0,0,0,0,0,0,0,0,0,0,0,0,0,0,0,0,0,0,0,0,0,0,0,0,0,0,0,0,0,0,0,0,0,0,0,0,0,0]}]],[[{"header":{"parameterUnit":"kt","parameterCategory":2,"dx":1,"dy":1,"la1":30.253999710083008,"la2":30.299108505249023,"lo1":-89.0895004272461,"lo2":-89.04439544677734,"nx":28,"ny":28,"refTime":"2022-09-22T21:00:00:Z","depth":"4","parameterNumber":2,"parameterNumberName":"U-component_of_CURRENTS"},"data":[-0.0807,-0.0809,-0.0804,-0.0747,-0.0702,-0.0717,-0.0772,-0.0834,-0.0794,-0.0884,-0.0906,-0.0993,-0.106,-0.1075,-0.1138,-0.117,-0.1689,-0.1413,-0.1411,-0.24,-0.246,-0.2513,-0.2281,0,0,0,0,0,-0.0834,-0.0819,-0.0823,-0.083,-0.0859,-0.0864,-0.0954,-0.1002,-0.1094,-0.1028,-0.1114,-0.1083,-0.1136,-0.1166,-0.119,-0.1318,-0.1888,-0.1346,-0.2185,-0.2438,-0.2504,-0.2255,0,0,0,0,0,0,-0.0872,-0.0872,-0.0917,-0.0932,-0.0973,-0.0975,-0.1014,-0.1036,-0.1105,-0.1289,-0.1159,-0.1295,-0.1398,-0.1446,-0.1458,-0.1545,-0.1846,-0.206,-0.2141,-0.2207,-0.1942,-0.1501,-0.1171,0,0,0,0,0,-0.0911,-0.0951,-0.0998,-0.1011,-0.1066,-0.1095,-0.1172,-0.1186,-0.1349,-0.1507,-0.1462,-0.157,-0.1557,-0.1783,-0.175,-0.2002,-0.2681,-0.2482,-0.2533,-0.2954,-0.269,-0.2647,-0.2655,-0.2755,-0.2763,-0.2768,-0.2772,0,-0.0987,-0.0989,-0.1089,-0.1108,-0.1168,-0.1231,-0.1295,-0.1472,-0.1513,-0.1664,-0.1691,-0.1881,-0.1996,-0.2023,-0.2321,-0.2582,-0.2599,-0.2644,-0.3089,-0.2794,-0.2738,-0.2729,-0.2717,-0.2825,-0.2821,-0.2816,-0.2812,0,-0.1035,-0.1098,-0.1141,-0.1267,-0.1294,-0.1345,-0.1474,-0.1545,-0.1723,-0.1799,-0.1929,-0.2169,-0.2353,-0.2581,-0.3014,-0.3033,-0.3197,-0.3074,-0.3278,-0.3234,-0.2832,-0.2798,-0.2912,-0.2893,-0.2876,-0.2863,-0.2851,0,-0.1142,-0.1167,-0.126,-0.1277,-0.134,-0.1453,-0.1528,-0.1637,-0.18,-0.185,-0.2162,-0.2218,-0.2759,-0.2884,-0.3158,-0.317,-0.3505,-0.3335,-0.3285,-0.3746,-0.371,-0.3787,-0.3752,-0.4088,-0.4087,-0.4087,-0.4086,0,-0.1191,-0.1265,-0.1295,-0.1319,-0.144,-0.149,-0.1577,-0.1705,-0.1782,-0.1999,-0.21,-0.2424,-0.2622,-0.2991,-0.3178,-0.3303,-0.3529,-0.3742,-0.3309,-0.326,-0.3771,-0.3736,-0.4086,-0.4086,-0.4086,-0.4085,-0.4085,0,-0.1272,-0.1309,-0.1337,-0.1435,-0.1455,-0.1504,-0.1616,-0.1699,-0.1849,-0.1928,-0.2101,-0.2268,-0.2603,-0.268,-0.3135,-0.3028,-0.3203,-0.3349,-0.3356,-0.2848,-0.2671,-0.3033,-0.3269,-0.3264,-0.3258,-0.3253,-0.3249,0,-0.1316,-0.134,-0.1388,-0.1433,-0.1445,-0.1525,-0.1608,-0.1688,-0.1777,-0.1885,-0.2068,-0.2241,-0.2317,-0.2448,-0.2674,-0.2905,-0.3071,-0.2906,-0.3183,-0.3188,-0.2629,-0.2735,-0.311,-0.3176,-0.3186,-0.3192,-0.3197,0,-0.1321,-0.1383,-0.1388,-0.1414,-0.1493,-0.1508,-0.1589,-0.1665,-0.1728,-0.1853,-0.196,-0.218,-0.2276,-0.2354,-0.2433,-0.2661,-0.2938,-0.2714,-0.2725,-0.27,-0.3309,-0.2712,-0.2696,-0.3056,-0.3067,-0.3076,-0.3147,0,-0.1354,-0.1385,-0.1397,-0.1443,-0.1475,-0.1507,-0.1567,-0.1619,-0.1698,-0.1754,-0.1904,-0.2036,-0.2173,-0.221,-0.2268,-0.2523,-0.2453,-0.2501,-0.249,-0.2646,-0.2633,-0.2673,-0.2196,-0.2196,-0.2195,-0.2195,0,0,-0.1363,-0.1378,-0.1408,-0.1427,-0.1457,-0.1511,-0.153,-0.1586,-0.1657,-0.1701,-0.1733,-0.1923,-0.2001,-0.2138,-0.2215,-0.2208,-0.2271,-0.2209,-0.2532,-0.2568,-0.2603,-0.2603,-0.2642,-0.2194,-0.2193,-0.2193,-0.2193,0,-0.1353,-0.1387,-0.14,-0.1423,-0.1471,-0.1499,-0.1515,-0.156,-0.1614,-0.1692,-0.174,-0.1858,-0.1924,-0.2018,-0.2069,-0.218,-0.2206,-0.2176,-0.2285,-0.2517,-0.2554,-0.2588,-0.2594,-0.2629,-0.2192,-0.2192,-0.2192,0,-0.1352,-0.1379,-0.1388,-0.1421,-0.1451,-0.1472,-0.1495,-0.1538,-0.1583,-0.1611,-0.1698,-0.1751,-0.1826,-0.1914,-0.1959,-0.1945,-0.2165,-0.2048,-0.2054,-0.2114,-0.2356,-0.2397,-0.2433,-0.1969,-0.1968,-0.1967,0,0,-0.1354,-0.1377,-0.1396,-0.1418,-0.143,-0.1473,-0.15,-0.1532,-0.158,-0.1613,-0.1656,-0.1729,-0.1799,-0.1841,-0.1889,-0.196,-0.2037,-0.2017,-0.2028,-0.2036,-0.2099,-0.2342,-0.238,-0.1963,-0.1963,-0.1963,0,0,-0.135,-0.1374,-0.1394,-0.1412,-0.144,-0.1471,-0.1503,-0.1534,-0.16,-0.1626,-0.166,-0.1674,-0.1761,-0.1786,-0.1729,-0.1892,-0.1856,-0.1867,-0.186,-0.1873,-0.1883,-0.1945,-0.1717,0,0,0,0,0,-0.1354,-0.1364,-0.1381,-0.1388,-0.1433,-0.1455,-0.1465,-0.1518,-0.1552,-0.1574,-0.1637,-0.1634,-0.1783,-0.1731,-0.1739,-0.1795,-0.191,-0.1919,-0.1928,-0.1935,-0.195,-0.1961,0,0,0,0,0,0,-0.1357,-0.1362,-0.1381,-0.1405,-0.1417,-0.1455,-0.1483,-0.1497,-0.1551,-0.156,-0.1624,-0.1634,-0.165,-0.1727,-0.1734,-0.1788,-0.1714,-0.1913,-0.1922,-0.1929,-0.194,-0.1952,-0.1962,0,0,0,0,0,-0.1359,-0.1363,-0.1419,-0.1407,-0.1417,-0.1483,-0.1484,-0.1496,-0.1551,-0.1582,-0.1595,-0.1593,-0.1648,-0.1658,-0.1731,-0.1786,-0.1709,-0.1712,-0.1919,-0.1925,-0.1931,-0.1946,0,0,0,0,0,0,-0.1361,-0.138,-0.1423,-0.1429,-0.1418,-0.1484,-0.1494,-0.1495,-0.1571,-0.1584,-0.1548,-0.1553,-0.1646,-0.1655,-0.1662,-0.1786,-0.1705,-0.1708,-0.171,-0.1924,-0.1929,-0.1933,0,0,0,0,0,0,-0.1379,-0.1384,-0.1426,-0.1436,-0.1444,-0.1484,-0.1493,-0.1516,-0.1571,-0.1534,-0.154,-0.1549,-0.1636,-0.1652,-0.1658,-0.1691,-0.1702,-0.1705,-0.1707,-0.1708,-0.1928,-0.1932,0,0,0,0,0,0,-0.1383,-0.1388,-0.1435,-0.1441,-0.1448,-0.1519,-0.1506,-0.1552,-0.1576,-0.1529,-0.158,-0.1582,-0.1632,-0.1639,-0.1655,-0.1685,-0.169,-0.1702,-0.1704,-0.1705,-0.1706,0,0,0,0,0,0,0,-0.1386,-0.1333,-0.1387,-0.1445,-0.1451,-0.1484,-0.1485,-0.1487,-0.1576,-0.1578,-0.1579,-0.1581,-0.1688,-0.1691,-0.1693,-0.168,0,0,-0.1702,-0.1703,0,0,0,0,0,0,0,0,-0.1332,-0.1333,-0.1387,-0.1388,-0.1389,-0.1484,-0.1485,-0.1487,-0.1577,-0.1578,-0.1579,-0.158,-0.1688,-0.1691,-0.1693,0,0,0,0,0,0,0,0,0,0,0,0,0,0,0,-0.1387,-0.1388,0,-0.1484,-0.1485,-0.1486,-0.1577,-0.1578,-0.1579,-0.158,-0.1689,-0.1691,-0.1693,0,0,0,0,0,0,0,0,0,0,0,0,0,0,0,0,0,0,0,0,0,0,0,0,0,0,0,0,0,0,0,0,0,0,0,0,0,0,0,0,0,0,0,0,0,0,0,0,0,0,0,0,0,0,0,0,0,0,0,0,0,0,0,0,0,0,0,0,0]}],[{"header":{"parameterUnit":"kt","parameterCategory":2,"dx":1,"dy":1,"la1":30.253999710083008,"la2":30.299108505249023,"lo1":-89.0895004272461,"lo2":-89.04439544677734,"nx":28,"ny":28,"refTime":"2022-09-22T21:00:00:Z","depth":"4","parameterNumber":3,"parameterNumberName":"V-component_of_CURRENTS"},"data":[-0.1053,-0.1122,-0.1165,-0.1262,-0.1325,-0.1452,-0.1511,-0.1543,-0.147,-0.1486,-0.1402,-0.14,-0.1251,-0.1399,-0.1119,-0.109,-0.0967,-0.0928,-0.0924,-0.0758,-0.0759,-0.076,-0.0871,0,0,0,0,0,-0.1079,-0.1107,-0.12,-0.1306,-0.1436,-0.1506,-0.1585,-0.162,-0.1637,-0.1574,-0.1615,-0.1478,-0.1328,-0.1271,-0.1136,-0.1148,-0.0955,-0.0981,-0.0839,-0.0759,-0.076,-0.0868,0,0,0,0,0,0,-0.1098,-0.1143,-0.1235,-0.1341,-0.1465,-0.1544,-0.1604,-0.1611,-0.166,-0.1714,-0.1629,-0.1603,-0.1589,-0.1409,-0.1249,-0.1145,-0.0975,-0.0878,-0.0873,-0.0873,-0.0974,-0.1054,-0.0936,0,0,0,0,0,-0.1104,-0.1167,-0.1246,-0.1365,-0.1473,-0.1574,-0.1663,-0.1679,-0.1767,-0.1862,-0.1793,-0.1745,-0.1615,-0.1452,-0.1371,-0.1098,-0.1093,-0.0984,-0.0977,-0.0844,-0.0891,-0.0835,-0.0843,-0.0766,-0.0766,-0.0766,-0.0766,0,-0.1093,-0.1148,-0.1304,-0.1369,-0.1446,-0.1574,-0.1658,-0.179,-0.182,-0.1907,-0.1894,-0.19,-0.1868,-0.1574,-0.1432,-0.1152,-0.1057,-0.0992,-0.0852,-0.0895,-0.0836,-0.0844,-0.0852,-0.0767,-0.0767,-0.0767,-0.0767,0,-0.1083,-0.1151,-0.1265,-0.1411,-0.1458,-0.1556,-0.1698,-0.1786,-0.1898,-0.1953,-0.1997,-0.2037,-0.1889,-0.182,-0.1523,-0.1369,-0.1131,-0.102,-0.1161,-0.1098,-0.085,-0.0858,-0.0769,-0.0769,-0.0768,-0.0768,-0.0768,0,-0.1078,-0.1158,-0.1268,-0.1321,-0.145,-0.153,-0.1662,-0.1745,-0.1856,-0.1896,-0.1982,-0.198,-0.188,-0.1789,-0.1549,-0.1294,-0.1297,-0.1004,-0.0935,-0.099,-0.0996,-0.0927,-0.0927,-0.0945,-0.0946,-0.0947,-0.0948,0,-0.103,-0.1148,-0.1242,-0.128,-0.1399,-0.1481,-0.1555,-0.1657,-0.1716,-0.1835,-0.1881,-0.1893,-0.1899,-0.1693,-0.1503,-0.1433,-0.1253,-0.113,-0.0966,-0.0963,-0.0934,-0.0931,-0.095,-0.095,-0.095,-0.0951,-0.0951,0,-0.1011,-0.1069,-0.1179,-0.1289,-0.1313,-0.1394,-0.1516,-0.1585,-0.1673,-0.1701,-0.1759,-0.1756,-0.1768,-0.1654,-0.1472,-0.1489,-0.1291,-0.1161,-0.115,-0.1124,-0.1028,-0.0925,-0.0988,-0.099,-0.0991,-0.0992,-0.0993,0,-0.0951,-0.1045,-0.1069,-0.1178,-0.1221,-0.1246,-0.1333,-0.139,-0.1426,-0.15,-0.1516,-0.1589,-0.1512,-0.1539,-0.1467,-0.1341,-0.1257,-0.1323,-0.103,-0.1023,-0.1019,-0.1078,-0.1169,-0.1009,-0.1007,-0.1005,-0.1004,0,-0.0884,-0.0946,-0.0958,-0.1001,-0.105,-0.1078,-0.1162,-0.1224,-0.1288,-0.1311,-0.1397,-0.1445,-0.1425,-0.1439,-0.1405,-0.134,-0.1276,-0.1201,-0.1194,-0.1122,-0.1074,-0.1092,-0.1083,-0.1172,-0.1171,-0.1171,-0.1015,0,-0.0837,-0.0881,-0.0904,-0.0952,-0.0978,-0.1017,-0.103,-0.1067,-0.1075,-0.1089,-0.1173,-0.1174,-0.1219,-0.1225,-0.1185,-0.1221,-0.1136,-0.1082,-0.1006,-0.1075,-0.0998,-0.099,-0.105,-0.1047,-0.1046,-0.1044,0,0,-0.0764,-0.0807,-0.0787,-0.0827,-0.0851,-0.0818,-0.087,-0.0886,-0.0903,-0.0931,-0.0899,-0.0978,-0.0975,-0.1065,-0.1091,-0.1082,-0.0989,-0.105,-0.1057,-0.1059,-0.1061,-0.0991,-0.0985,-0.1041,-0.104,-0.1039,-0.1038,0,-0.0735,-0.0738,-0.0774,-0.0786,-0.0791,-0.0789,-0.0798,-0.0795,-0.0806,-0.086,-0.0835,-0.0875,-0.0897,-0.0924,-0.0936,-0.1044,-0.0931,-0.1033,-0.1117,-0.1043,-0.1048,-0.1051,-0.0984,-0.098,-0.1034,-0.1034,-0.1034,0,-0.068,-0.0685,-0.07,-0.0713,-0.0707,-0.074,-0.0683,-0.07,-0.0743,-0.068,-0.0743,-0.0737,-0.0738,-0.0799,-0.0822,-0.0786,-0.0851,-0.0866,-0.0876,-0.0891,-0.0809,-0.0816,-0.0823,-0.0734,-0.0733,-0.0732,0,0,-0.0659,-0.0688,-0.0674,-0.0704,-0.0701,-0.0684,-0.0686,-0.0678,-0.0677,-0.0679,-0.0677,-0.0684,-0.0712,-0.0722,-0.0741,-0.079,-0.0726,-0.0832,-0.0846,-0.0858,-0.0879,-0.0802,-0.081,-0.073,-0.073,-0.073,0,0,-0.0643,-0.0642,-0.0634,-0.0664,-0.0664,-0.0645,-0.0658,-0.0643,-0.0654,-0.0654,-0.0627,-0.0626,-0.0683,-0.0663,-0.0628,-0.0729,-0.0667,-0.0674,-0.0748,-0.0765,-0.0778,-0.08,-0.058,0,0,0,0,0,-0.0613,-0.0644,-0.0637,-0.0639,-0.0643,-0.0652,-0.0652,-0.063,-0.0611,-0.0629,-0.0624,-0.0596,-0.0645,-0.0613,-0.0615,-0.0675,-0.0694,-0.07,-0.0706,-0.0812,-0.0831,-0.0846,0,0,0,0,0,0,-0.0614,-0.0617,-0.0636,-0.0619,-0.0619,-0.0651,-0.0609,-0.0605,-0.0609,-0.0605,-0.0598,-0.0595,-0.0577,-0.061,-0.0612,-0.0671,-0.0579,-0.0696,-0.0702,-0.0706,-0.0819,-0.0834,-0.0847,0,0,0,0,0,-0.0614,-0.0617,-0.0632,-0.0618,-0.0618,-0.0596,-0.0608,-0.0604,-0.0611,-0.0589,-0.0586,-0.0594,-0.0578,-0.0579,-0.0611,-0.0671,-0.0577,-0.0578,-0.07,-0.0704,-0.0708,-0.0826,0,0,0,0,0,0,-0.0614,-0.0613,-0.0631,-0.063,-0.0606,-0.0594,-0.0592,-0.0604,-0.0595,-0.0591,-0.0583,-0.058,-0.0579,-0.0579,-0.058,-0.0674,-0.0576,-0.0577,-0.0577,-0.0703,-0.0706,-0.0709,0,0,0,0,0,0,-0.0611,-0.0613,-0.063,-0.0617,-0.0613,-0.0592,-0.0591,-0.0606,-0.0595,-0.059,-0.0587,-0.0582,-0.0578,-0.058,-0.0581,-0.0605,-0.0574,-0.0575,-0.0576,-0.0576,-0.0706,-0.0708,0,0,0,0,0,0,-0.0611,-0.0612,-0.0617,-0.0615,-0.0612,-0.0596,-0.0605,-0.0613,-0.0577,-0.0591,-0.0574,-0.0572,-0.058,-0.058,-0.0581,-0.0605,-0.0605,-0.0574,-0.0575,-0.0576,-0.0576,0,0,0,0,0,0,0,-0.0611,-0.0612,-0.0637,-0.0613,-0.061,-0.0616,-0.0616,-0.0616,-0.0577,-0.0575,-0.0574,-0.0573,-0.0569,-0.057,-0.0571,-0.0605,0,0,-0.0574,-0.0575,0,0,0,0,0,0,0,0,-0.0611,-0.0612,-0.0637,-0.0637,-0.0636,-0.0616,-0.0616,-0.0616,-0.0576,-0.0575,-0.0574,-0.0573,-0.0569,-0.057,-0.0571,0,0,0,0,0,0,0,0,0,0,0,0,0,0,0,-0.0637,-0.0637,0,-0.0616,-0.0616,-0.0616,-0.0576,-0.0575,-0.0574,-0.0574,-0.0569,-0.057,-0.0571,0,0,0,0,0,0,0,0,0,0,0,0,0,0,0,0,0,0,0,0,0,0,0,0,0,0,0,0,0,0,0,0,0,0,0,0,0,0,0,0,0,0,0,0,0,0,0,0,0,0,0,0,0,0,0,0,0,0,0,0,0,0,0,0,0,0,0,0,0]}]]]